Regional Weather Roundup
Issued by NWS

Home | Current Version | Previous Version | Text Only | Print | Product List | Glossary On
Versions: 1 2 3 4 5 6 7 8 9 10 11 12 13 14 15 16 17 18 19 20 21 22 23 24 25 26 27 28 29 30 31 32 33 34 35 36 37 38 39 40 41 42 43 44 45 46 47 48 49 50
000
ASUS43 KDTX 212110
RWRMI
MICHIGAN HOURLY REGIONAL WEATHER ROUNDUP
NATIONAL WEATHER SERVICE DETROIT/PONTIAC MI
500 PM EDT SAT APR 21 2018

NOTE: "FAIR" INDICATES FEW OR NO CLOUDS BELOW 12,000 FEET WITH NO
SIGNIFICANT WEATHER AND/OR OBSTRUCTION TO VISIBILITY.

MIZ047>049-052>055-059>063-066>070-074>076-081>083-212200-
SOUTHEAST LOWER MICHIGAN

CITY           SKY/WX    TMP DP  RH WIND       PRES   REMARKS
ADRIAN         FAIR      55  24  30 E3        30.41F
ALMA           FAIR      58  29  32 SW5       30.39F
ANN ARBOR      FAIR      56  26  31 CALM      30.39F
BAD AXE        FAIR      59  22  23 N5        30.39S
CARO           FAIR      60  23  23 W6        30.38S
DETROIT CITY   FAIR      53  15  22 SE7       30.41F
DETROIT        CLOUDY    56  25  30 S3        30.41F
FLINT          FAIR      56  25  30 SW7       30.39
GROSSE ILE     FAIR      46  28  50 S6        30.42S
HILLSDALE      FAIR      54  21  28 CALM      30.38F
HOWELL         FAIR      56  24  29 S5        30.39F

CITY           SKY/WX    TMP DP  RH WIND       PRES   REMARKS
JACKSON        FAIR      55  22  27 SW6       30.39F
LAMBERTVILLE   FAIR      53  21  29 SE7       30.41S
LANSING        FAIR      57  26  30 SW5       30.39F
LAPEER         FAIR      58  22  24 W7        30.39S
MASON          FAIR      57  17  21 W7        30.39F
MONROE         FAIR      50  21  32 SE7       30.41F
MT. CLEMENS    PTSUNNY   51  21  30 S7        30.40F
PONTIAC        CLOUDY    54  25  32 SE6       30.38F
PORT HOPE        N/A     41  32  70 E12       30.39F
PORT HURON     FAIR      55  21  26 SW3       30.41S
TRI CITIES     FAIR      59  25  27 SW9       30.38F
MIDLAND        FAIR      60  30  32 SW8       30.37S
TROY           FAIR      55  13  19 E6        30.42F
SAGINAW HB     FAIR      59  23  25 SW6       30.38S
$$
MIZ043>046-050>051-056>058-064>065-071>073-077>080-212200-
SOUTHWEST LOWER MICHIGAN

CITY           SKY/WX    TMP DP  RH WIND       PRES   REMARKS
BATTLE CREEK   FAIR      57  27  31 S5        30.39F
BENTON HARBOR  FAIR      51  18  27 VRB7      30.41F
BIG RAPIDS     FAIR      58   8  13 CALM      30.36F
COLDWATER      FAIR      56  24  28 CALM      30.38F
FREMONT        FAIR      58  -5   7 W6        30.38F
HOLLAND        FAIR      54  25  32 NW7       30.41S
GRAND RAPIDS   CLOUDY    58  24  27 CALM      30.38F
IONIA          FAIR      58  20  22 SW3       30.37F
KALAMAZOO      FAIR      58  23  26 W6        30.38F
LUDINGTON      FAIR      51  15  24 W7        30.39F
MARSHALL       FAIR      55  23  29 SE5       30.39F
MOUNT PLEASANT FAIR      60  22  23 CALM      30.38S
MUSKEGON       PTSUNNY   53  16  23 W10       30.40F
SOUTH HAVEN    PTSUNNY   52  20  27 N7        30.41S
$$
MIZ016>042-212200-
NORTHERN LOWER MICHIGAN

CITY           SKY/WX    TMP DP  RH WIND       PRES   REMARKS
ALPENA         FAIR      51  22  31 E9        30.39F
BEAVER ISLAND  FAIR      51  16  25 SW7       30.39S
BELLAIRE       FAIR      56  10  16 SW5       30.38F
CADILLAC       FAIR      57  16  20 CALM      30.35F
CHARLEVOIX     FAIR      54  17  23 SW5       30.42F
FRANKFORT      FAIR      51  15  23 W6        30.40F
GAYLORD        FAIR      56   9  15 CALM      30.37F
GRAYLING       FAIR      56  12  18 CALM      30.36F
HARBOR SPRINGS FAIR      48  19  30 SW6       30.39F
HOUGHTON LAKE  FAIR      56  15  20 SW8       30.37F
MANISTEE       FAIR      51  13  21 W12       30.40F
OSCODA         FAIR      48  23  37 SE8       30.39F
PELLSTON       FAIR      54  14  20 SW9       30.39F
ROGERS CITY    FAIR      50  21  32 E6        30.40F
TRAVERSE CITY  FAIR      50  25  37 N9        30.37F
$$
MIZ007>008-015-212200-
EASTERN UPPER MICHIGAN

CITY           SKY/WX    TMP DP  RH WIND       PRES   REMARKS
KINROSS        FAIR      54  13  19 SW9       30.37F
MACKINAC ISLAN FAIR      50  18  27 W10       30.38F
NEWBERRY       FAIR      50  19  29 SE6       30.36F
S. S. MARIE    FAIR      56  16  20 SW9       30.36S
MUNISING         N/A     39  28  64 N7        30.36F WCI  34
$$
MIZ004>006-011>014-085-212200-
CENTRAL UPPER MICHIGAN

CITY           SKY/WX    TMP DP  RH WIND       PRES   REMARKS
MANISTIQUE     FAIR      43  30  60 S13G20    30.37F
ESCANABA       FAIR      51  24  34 SE10      30.36F
MENOMINEE      FAIR      56  19  23 S12       30.36F
SAWYER-GWINN   SUNNY     52  14  22 NE17      30.34F
$$
MIZ001>003-009>011-084-212200-
WESTERN UPPER MICHIGAN

CITY           SKY/WX    TMP DP  RH WIND       PRES   REMARKS
IRON MOUNTAIN  FAIR      61   9  12 CALM      30.30F
HOUGHTON       FAIR      50  25  37 NW7       30.35F
COPPER HARBOR    N/A     42  28  57 CALM      30.37F
IRONWOOD       FAIR      55  15  20 VRB7      30.34F
$$

ABBREVIATIONS USED IN REMARKS
   TC - TEMPERATURE IN CELSIUS
  WCI - WIND CHILL INDEX
   HX - HEAT INDEX
  VSB - VISIBILITY





USA.gov is the U.S. government's official web portal to all federal, state and local government web resources and services.